THY43C LTFM-DNMM

Flight info

Callsign THY43C
Flight time N/A
Altitude 38000
Route BARPE1E/36 BARPE UM603 TSL UM600 KOGIS DCT DINOB/N0477F390 DCT LORED/N0479F400 DCT VARIG/N0476F390 P709 ZAW/N0478F400 M600 IMN UB727 BERTI/N0478F410 UR978 ERKEL/N0480F400 UT258 NANOS UB731 BUDSI BUDSI1N
Aircraft A359/H-SDE2E3GHIJ3J4J5LM1ORWXY/LB1D1

Departure

Time 2026-05-06 12:41
Airport İstanbul Airport (LTFM)

Arrival

Time N/A
Airport Murtala Muhammed International Airport (DNMM)
Time Latitude Longitude Altitude Speed Heading
2026-05-06 12:10 41.26640 28.74720 340 ft 0 kts 92°
2026-05-06 12:29 41.26640 28.74717 340 ft 3 kts 92°
2026-05-06 12:29 41.26640 28.74681 337 ft 4 kts 87°
2026-05-06 12:30 41.26640 28.74649 335 ft 4 kts 87°
2026-05-06 12:30 41.26633 28.74621 335 ft 4 kts 28°
2026-05-06 12:30 41.26609 28.74615 335 ft 4 kts 358°
2026-05-06 12:30 41.26600 28.74616 335 ft 0 kts 360°
2026-05-06 12:32 41.26601 28.74616 335 ft 0 kts 360°
2026-05-06 12:35 41.26608 28.74616 335 ft 3 kts 360°
2026-05-06 12:35 41.26656 28.74615 337 ft 11 kts 359°
2026-05-06 12:35 41.26750 28.74613 338 ft 16 kts 359°
2026-05-06 12:36 41.26870 28.74610 337 ft 18 kts 358°
2026-05-06 12:36 41.26952 28.74621 335 ft 8 kts 30°
2026-05-06 12:36 41.26976 28.74697 338 ft 12 kts 85°
2026-05-06 12:36 41.26977 28.74833 340 ft 18 kts 89°
2026-05-06 12:37 41.26979 28.75006 337 ft 19 kts 89°
2026-05-06 12:37 41.26981 28.75185 337 ft 20 kts 89°
2026-05-06 12:37 41.26980 28.75330 336 ft 12 kts 96°
2026-05-06 12:37 41.26925 28.75373 335 ft 13 kts 172°
2026-05-06 12:38 41.26810 28.75378 338 ft 19 kts 179°
2026-05-06 12:38 41.26673 28.75380 336 ft 20 kts 179°
2026-05-06 12:38 41.26525 28.75384 338 ft 21 kts 180°
2026-05-06 12:38 41.26435 28.75403 335 ft 10 kts 141°
2026-05-06 12:39 41.26423 28.75482 339 ft 7 kts 88°
2026-05-06 12:39 41.26424 28.75500 336 ft 0 kts 88°
2026-05-06 12:39 41.26424 28.75511 336 ft 4 kts 88°
2026-05-06 12:39 41.26425 28.75555 335 ft 6 kts 89°
2026-05-06 12:40 41.26426 28.75619 336 ft 9 kts 88°
2026-05-06 12:40 41.26464 28.75660 337 ft 10 kts
2026-05-06 12:40 41.26594 28.75661 336 ft 36 kts 359°
2026-05-06 12:40 41.27093 28.75652 336 ft 106 kts 359°
2026-05-06 12:41 41.28045 28.75629 367 ft 163 kts 360°
2026-05-06 12:41 41.29149 28.75552 1168 ft 156 kts
2026-05-06 12:41 41.30229 28.75832 1697 ft 174 kts 28°
2026-05-06 12:41 41.31256 28.76882 1907 ft 201 kts 37°
2026-05-06 12:42 41.32487 28.77994 2190 ft 226 kts 29°
2026-05-06 12:42 41.33912 28.79112 2545 ft 248 kts 27°
2026-05-06 12:42 41.35450 28.80280 3130 ft 258 kts 27°
2026-05-06 12:42 41.37004 28.81512 3857 ft 263 kts 32°
2026-05-06 12:43 41.38198 28.83371 4575 ft 272 kts 63°
2026-05-06 12:43 41.38556 28.85855 5370 ft 276 kts 85°
2026-05-06 12:43 41.38555 28.88413 6209 ft 277 kts 88°
2026-05-06 12:43 41.38272 28.90971 6968 ft 284 kts 105°
2026-05-06 12:44 41.37268 28.93248 7704 ft 291 kts 131°
2026-05-06 12:44 41.35571 28.94720 8431 ft 298 kts 160°
2026-05-06 12:44 41.33514 28.95040 9179 ft 300 kts 184°
2026-05-06 12:44 41.31414 28.94958 9967 ft 305 kts 181°
2026-05-06 12:45 41.29248 28.94935 10454 ft 320 kts 180°
2026-05-06 12:45 41.26956 28.94929 10765 ft 340 kts 181°
2026-05-06 12:45 41.22345 28.92883 11643 ft 362 kts 210°
2026-05-06 12:46 41.20122 28.91248 12340 ft 368 kts 210°
2026-05-06 12:46 41.17873 28.89595 13089 ft 371 kts 210°
2026-05-06 12:46 41.15601 28.87938 13869 ft 374 kts 210°
2026-05-06 12:46 41.14083 28.86836 14301 ft 377 kts 210°
2026-05-06 12:47 41.11769 28.85160 14885 ft 382 kts 210°
2026-05-06 12:47 41.09425 28.83469 15504 ft 386 kts 210°
2026-05-06 12:47 41.06375 28.81008 16299 ft 389 kts 217°
2026-05-06 12:47 41.04192 28.78862 16937 ft 392 kts 219°
2026-05-06 12:48 41.02011 28.76665 17570 ft 396 kts 219°
2026-05-06 12:48 40.99806 28.74443 18170 ft 401 kts 219°
2026-05-06 12:48 40.98301 28.72930 18577 ft 403 kts 219°
2026-05-06 12:48 40.96056 28.70679 19151 ft 407 kts 219°
2026-05-06 12:49 40.93802 28.68398 19762 ft 408 kts 221°
2026-05-06 12:49 40.91826 28.65727 20332 ft 406 kts 237°
2026-05-06 12:49 40.90566 28.62436 20922 ft 400 kts 256°
2026-05-06 12:49 40.89923 28.58872 21562 ft 399 kts 262°
2026-05-06 12:50 40.89414 28.55315 22174 ft 401 kts 262°
2026-05-06 12:50 40.88893 28.51634 22775 ft 404 kts 262°
2026-05-06 12:50 40.88374 28.48030 23351 ft 406 kts 262°
2026-05-06 12:50 40.87838 28.44351 23894 ft 409 kts 262°
2026-05-06 12:51 40.87293 28.40645 24371 ft 412 kts 262°
2026-05-06 12:51 40.86743 28.36919 24848 ft 415 kts 262°
2026-05-06 12:51 40.86186 28.33171 25327 ft 417 kts 262°
2026-05-06 12:51 40.85623 28.29402 25806 ft 419 kts 262°
2026-05-06 12:52 40.85056 28.25612 26291 ft 422 kts 263°
2026-05-06 12:52 40.84484 28.21798 26752 ft 424 kts 263°
2026-05-06 12:52 40.83909 28.17968 27226 ft 427 kts 263°
2026-05-06 12:52 40.83330 28.14113 27684 ft 429 kts 263°
2026-05-06 12:53 40.82746 28.10238 28164 ft 431 kts 263°
2026-05-06 12:53 40.82156 28.06350 28618 ft 433 kts 263°
2026-05-06 12:53 40.81561 28.02438 29023 ft 436 kts 263°
2026-05-06 12:53 40.80962 27.98506 29445 ft 439 kts 263°
2026-05-06 12:54 40.80359 27.94550 29850 ft 441 kts 263°
2026-05-06 12:54 40.79761 27.90566 30241 ft 443 kts 264°
2026-05-06 12:54 40.79421 27.86545 30541 ft 440 kts 272°
2026-05-06 12:54 40.79403 27.82506 30881 ft 441 kts 274°
2026-05-06 12:55 40.79447 27.78449 31199 ft 443 kts 275°
2026-05-06 12:55 40.79495 27.74381 31498 ft 445 kts 275°
2026-05-06 12:55 40.79542 27.70282 31787 ft 448 kts 274°
2026-05-06 12:55 40.79583 27.66158 32073 ft 450 kts 274°
2026-05-06 12:56 40.79682 27.62027 32328 ft 451 kts 278°
2026-05-06 12:56 40.80148 27.57954 32591 ft 448 kts 286°
2026-05-06 12:56 40.80924 27.53974 32882 ft 448 kts 288°
2026-05-06 12:56 40.81760 27.49999 33142 ft 450 kts 288°
2026-05-06 12:57 40.82601 27.46013 33355 ft 452 kts 288°
2026-05-06 12:57 40.83444 27.41996 33574 ft 455 kts 288°
2026-05-06 12:57 40.84288 27.37955 33809 ft 457 kts 288°
2026-05-06 12:57 40.85132 27.33904 34050 ft 458 kts 288°
2026-05-06 12:58 40.85974 27.29845 34349 ft 458 kts 288°
2026-05-06 12:58 40.86813 27.25791 34640 ft 457 kts 288°
2026-05-06 12:58 40.87649 27.21744 34933 ft 456 kts 288°
2026-05-06 12:58 40.88481 27.17706 35200 ft 455 kts 288°
2026-05-06 12:59 40.89310 27.13673 35471 ft 454 kts 288°
2026-05-06 12:59 40.90136 27.09651 35760 ft 453 kts 288°
2026-05-06 12:59 40.90961 27.05629 35995 ft 453 kts 287°
2026-05-06 12:59 40.91752 27.01603 36220 ft 454 kts 285°
2026-05-06 13:00 40.92251 26.97462 36442 ft 457 kts 277°
2026-05-06 13:00 40.92304 26.93245 36677 ft 461 kts 271°
2026-05-06 13:00 40.92131 26.89008 36858 ft 462 kts 269°
2026-05-06 13:00 40.91882 26.84775 37081 ft 462 kts 269°
2026-05-06 13:01 40.91603 26.80550 37385 ft 460 kts 268°
2026-05-06 13:01 40.91321 26.76340 37610 ft 460 kts 268°
2026-05-06 13:01 40.91047 26.72135 37806 ft 459 kts 268°
2026-05-06 13:01 40.90781 26.67927 37986 ft 459 kts 269°
2026-05-06 13:02 40.90522 26.63710 38044 ft 462 kts 269°
2026-05-06 13:02 40.90014 26.55308 38033 ft 461 kts 269°
2026-05-06 13:03 40.89500 26.46868 38046 ft 460 kts 269°
2026-05-06 13:03 40.88981 26.38440 38034 ft 460 kts 269°
2026-05-06 13:04 40.88454 26.30021 38049 ft 459 kts 269°
2026-05-06 13:04 40.87901 26.21610 38048 ft 460 kts 268°
2026-05-06 13:05 40.87104 26.13236 38050 ft 460 kts 266°
2026-05-06 13:05 40.86232 26.04872 38044 ft 460 kts 266°
2026-05-06 13:06 40.85387 25.96510 38047 ft 459 kts 266°
2026-05-06 13:06 40.84468 25.88154 38047 ft 460 kts 265°
2026-05-06 13:07 40.83467 25.80173 38049 ft 460 kts 265°
2026-05-06 13:07 40.82418 25.71833 38053 ft 459 kts 265°
2026-05-06 13:08 40.81388 25.63516 38031 ft 459 kts 265°
2026-05-06 13:08 40.80361 25.55193 38060 ft 459 kts 265°
2026-05-06 13:09 40.79331 25.46881 38066 ft 459 kts 265°
2026-05-06 13:09 40.78293 25.38567 38063 ft 459 kts 265°
2026-05-06 13:10 40.77246 25.30256 38056 ft 459 kts 264°
2026-05-06 13:10 40.76195 25.21970 38062 ft 457 kts 264°
2026-05-06 13:11 40.75140 25.13702 38056 ft 457 kts 264°
2026-05-06 13:11 40.74082 25.05440 38058 ft 457 kts 264°
2026-05-06 13:12 40.73017 24.97180 38049 ft 457 kts 264°
2026-05-06 13:12 40.71944 24.88929 38057 ft 456 kts 263°
2026-05-06 13:13 40.70867 24.80687 38057 ft 456 kts 263°
2026-05-06 13:13 40.69786 24.72450 38057 ft 456 kts 263°
2026-05-06 13:14 40.68707 24.64264 38058 ft 456 kts 263°
2026-05-06 13:14 40.67613 24.56030 38052 ft 456 kts 263°
2026-05-06 13:15 40.66513 24.47795 38053 ft 456 kts 263°
2026-05-06 13:15 40.65410 24.39577 38053 ft 456 kts 263°
2026-05-06 13:16 40.64301 24.31357 38051 ft 456 kts 263°
2026-05-06 13:16 40.63187 24.23140 38051 ft 456 kts 263°
2026-05-06 13:17 40.62068 24.14921 38043 ft 456 kts 263°
2026-05-06 13:17 40.60943 24.06711 38034 ft 456 kts 263°
2026-05-06 13:18 40.59814 23.98507 38048 ft 456 kts 262°
2026-05-06 13:18 40.58681 23.90300 38048 ft 456 kts 262°
2026-05-06 13:19 40.57534 23.82091 38044 ft 456 kts 262°
2026-05-06 13:19 40.56381 23.73894 38032 ft 456 kts 262°
2026-05-06 13:20 40.55221 23.65683 38044 ft 457 kts 262°
2026-05-06 13:20 40.54057 23.57473 38037 ft 457 kts 262°
2026-05-06 13:21 40.52887 23.49264 38041 ft 457 kts 262°
2026-05-06 13:21 40.51714 23.41052 38041 ft 457 kts 262°
2026-05-06 13:22 40.50527 23.32843 38036 ft 457 kts 262°
2026-05-06 13:22 40.49334 23.24635 38040 ft 458 kts 262°
2026-05-06 13:23 40.48146 23.16484 38045 ft 457 kts 261°
2026-05-06 13:23 40.46942 23.08272 38043 ft 458 kts 261°
2026-05-06 13:24 40.45602 23.00046 38048 ft 459 kts 255°
2026-05-06 13:24 40.43315 22.92248 38047 ft 462 kts 249°
2026-05-06 13:25 40.40736 22.84513 38044 ft 463 kts 249°
2026-05-06 13:25 40.38108 22.76805 38038 ft 463 kts 248°
2026-05-06 13:26 40.35489 22.69101 38039 ft 462 kts 248°
2026-05-06 13:26 40.32885 22.61423 38030 ft 461 kts 248°
2026-05-06 13:27 40.30270 22.53745 38035 ft 461 kts 248°
2026-05-06 13:27 40.27642 22.46080 38036 ft 461 kts 248°
2026-05-06 13:28 40.25056 22.38400 38034 ft 461 kts 248°
2026-05-06 13:28 40.22495 22.30784 38030 ft 460 kts 248°
2026-05-06 13:29 40.19908 22.23126 38034 ft 460 kts 248°
2026-05-06 13:29 40.17313 22.15475 38042 ft 460 kts 248°
2026-05-06 13:30 40.14709 22.07821 38049 ft 460 kts 248°
2026-05-06 13:30 40.12056 22.00218 38069 ft 461 kts 244°
2026-05-06 13:31 40.08932 21.92898 38051 ft 462 kts 242°
2026-05-06 13:31 40.05708 21.85651 38015 ft 462 kts 241°
2026-05-06 13:32 40.02461 21.78415 38013 ft 462 kts 241°
2026-05-06 13:32 39.99221 21.71196 38012 ft 460 kts 241°
2026-05-06 13:33 39.95993 21.64002 38029 ft 459 kts 241°
2026-05-06 13:33 39.92762 21.56815 38028 ft 459 kts 241°
2026-05-06 13:34 39.89529 21.49640 38038 ft 459 kts 241°
2026-05-06 13:34 39.86840 21.43684 38042 ft 459 kts 241°
2026-05-06 13:35 39.83598 21.36522 38055 ft 459 kts 241°
2026-05-06 13:35 39.80352 21.29365 38052 ft 459 kts 241°
2026-05-06 13:36 39.77099 21.22209 38074 ft 460 kts 241°
2026-05-06 13:36 39.73845 21.15069 38083 ft 459 kts 241°
2026-05-06 13:37 39.70591 21.07944 38096 ft 457 kts 240°
2026-05-06 13:37 39.67345 21.00853 38100 ft 457 kts 240°
2026-05-06 13:38 39.64096 20.93771 38101 ft 457 kts 240°
2026-05-06 13:38 39.60864 20.86743 38099 ft 457 kts 240°
2026-05-06 13:39 39.57605 20.79671 38101 ft 457 kts 240°
2026-05-06 13:39 39.54345 20.72614 38097 ft 456 kts 240°
2026-05-06 13:40 39.51088 20.65579 38097 ft 455 kts 240°
2026-05-06 13:40 39.47826 20.58546 38081 ft 455 kts 240°
2026-05-06 13:41 39.44557 20.51516 38096 ft 457 kts 240°
2026-05-06 13:41 39.41280 20.44486 38100 ft 456 kts 240°
2026-05-06 13:42 39.38000 20.37466 38100 ft 456 kts 240°
2026-05-06 13:42 39.34723 20.30467 38102 ft 455 kts 239°
2026-05-06 13:43 39.31542 20.23686 38102 ft 456 kts 239°
2026-05-06 13:43 39.28389 20.16980 38105 ft 456 kts 239°
2026-05-06 13:44 39.25093 20.09985 38102 ft 457 kts 239°
2026-05-06 13:44 39.21863 20.03146 38108 ft 457 kts 239°
2026-05-06 13:45 39.19025 19.97148 38107 ft 458 kts 239°
2026-05-06 13:45 39.14404 19.87406 38107 ft 458 kts 239°
2026-05-06 13:46 39.11097 19.80452 38107 ft 458 kts 239°
2026-05-06 13:46 39.07772 19.73476 38099 ft 457 kts 239°
2026-05-06 13:47 39.04445 19.66512 38108 ft 456 kts 239°
2026-05-06 13:47 39.01118 19.59563 38097 ft 456 kts 239°
2026-05-06 13:48 38.97789 19.52622 38104 ft 456 kts 239°
2026-05-06 13:48 38.94456 19.45691 38105 ft 456 kts 239°
2026-05-06 13:49 38.91123 19.38775 38103 ft 455 kts 239°
2026-05-06 13:49 38.87792 19.31877 38100 ft 455 kts 239°
2026-05-06 13:50 38.84455 19.24982 38089 ft 455 kts 239°
2026-05-06 13:50 38.81110 19.18083 38102 ft 456 kts 239°
2026-05-06 13:51 38.77756 19.11184 38099 ft 456 kts 238°
2026-05-06 13:51 38.74402 19.04297 38095 ft 455 kts 238°
2026-05-06 13:52 38.70797 18.97643 38091 ft 455 kts 233°
2026-05-06 13:52 38.66873 18.91267 38085 ft 456 kts 232°
2026-05-06 13:53 38.62894 18.84936 38091 ft 457 kts 232°
2026-05-06 13:53 38.58911 18.78611 38089 ft 457 kts 232°
2026-05-06 13:54 38.54935 18.72296 38086 ft 455 kts 232°
2026-05-06 13:54 38.50968 18.65997 38077 ft 455 kts 232°
2026-05-06 13:55 38.47024 18.59745 38087 ft 456 kts 232°
2026-05-06 13:55 38.43041 18.53445 38084 ft 456 kts 232°
2026-05-06 13:56 38.39052 18.47149 38084 ft 456 kts 232°
2026-05-06 13:56 38.35060 18.40859 38082 ft 456 kts 232°
2026-05-06 13:57 38.31069 18.34585 38080 ft 456 kts 232°
2026-05-06 13:57 38.27072 18.28312 38087 ft 456 kts 232°
2026-05-06 13:58 38.23069 18.22041 38084 ft 456 kts 232°
2026-05-06 13:58 38.19066 18.15784 38081 ft 456 kts 232°
2026-05-06 13:59 38.15056 18.09528 38070 ft 456 kts 232°
2026-05-06 13:59 38.11035 18.03266 38072 ft 458 kts 232°
2026-05-06 14:00 38.07004 17.97001 38086 ft 458 kts 232°
2026-05-06 14:00 38.02974 17.90750 38088 ft 458 kts 232°
2026-05-06 14:01 37.98934 17.84494 38085 ft 458 kts 232°
2026-05-06 14:01 37.94891 17.78246 38076 ft 459 kts 232°
2026-05-06 14:02 37.90836 17.71993 38074 ft 459 kts 232°
2026-05-06 14:02 37.86791 17.65768 38072 ft 457 kts 232°
2026-05-06 14:03 37.82754 17.59563 38075 ft 456 kts 232°
2026-05-06 14:03 37.78717 17.53372 38059 ft 456 kts 232°
2026-05-06 14:04 37.74664 17.47168 38070 ft 458 kts 232°
2026-05-06 14:04 37.70603 17.40963 38070 ft 458 kts 232°
2026-05-06 14:05 37.66540 17.34770 38069 ft 457 kts 232°
2026-05-06 14:05 37.62484 17.28596 38067 ft 457 kts 232°
2026-05-06 14:06 37.58452 17.22472 38067 ft 457 kts 232°
2026-05-06 14:06 37.54388 17.16309 38064 ft 457 kts 232°
2026-05-06 14:07 37.50320 17.10153 38067 ft 457 kts 232°
2026-05-06 14:07 37.46249 17.04003 38059 ft 457 kts 232°
2026-05-06 14:08 37.42179 16.97866 38061 ft 457 kts 232°
2026-05-06 14:08 37.38106 16.91736 38062 ft 457 kts 232°
2026-05-06 14:09 37.34028 16.85610 38061 ft 457 kts 232°
2026-05-06 14:09 37.29947 16.79491 38061 ft 457 kts 232°
2026-05-06 14:10 37.25859 16.73373 38062 ft 457 kts 232°
2026-05-06 14:10 37.21773 16.67271 38061 ft 457 kts 232°
2026-05-06 14:11 37.17687 16.61178 38058 ft 456 kts 232°
2026-05-06 14:11 37.13601 16.55097 38059 ft 456 kts 232°
2026-05-06 14:12 37.09507 16.49015 38056 ft 456 kts 232°
2026-05-06 14:12 37.05413 16.42944 38056 ft 456 kts 232°
2026-05-06 14:13 37.01316 16.36880 38053 ft 456 kts 232°
2026-05-06 14:13 36.97213 16.30819 38053 ft 457 kts 232°
2026-05-06 14:14 36.93097 16.24748 38047 ft 458 kts 232°
2026-05-06 14:14 36.88975 16.18682 38042 ft 458 kts 232°
2026-05-06 14:15 36.84850 16.12621 38044 ft 458 kts 232°
2026-05-06 14:15 36.80749 16.06606 38042 ft 458 kts 232°
2026-05-06 14:16 36.76613 16.00550 38039 ft 458 kts 232°
2026-05-06 14:16 36.72475 15.94504 38037 ft 459 kts 233°
2026-05-06 14:17 36.68329 15.88456 38034 ft 459 kts 233°
2026-05-06 14:17 36.64182 15.82418 38022 ft 459 kts 233°
2026-05-06 14:18 36.60035 15.76391 38031 ft 458 kts 233°
2026-05-06 14:18 36.55890 15.70377 38029 ft 458 kts 233°
2026-05-06 14:19 36.51733 15.64373 38029 ft 459 kts 232°
2026-05-06 14:19 36.49458 15.61579 38150 ft 461 kts 225°
2026-05-06 14:19 36.46957 15.59100 38448 ft 460 kts 222°
2026-05-06 14:20 36.44393 15.56706 38620 ft 461 kts 221°
2026-05-06 14:20 36.41803 15.54362 38774 ft 461 kts 221°
2026-05-06 14:20 36.39196 15.52035 38910 ft 461 kts 220°
2026-05-06 14:20 36.36589 15.49719 39060 ft 461 kts 220°
2026-05-06 14:21 36.33985 15.47405 39202 ft 461 kts 220°
2026-05-06 14:21 36.31383 15.45089 39332 ft 460 kts 220°
2026-05-06 14:21 36.28785 15.42771 39466 ft 460 kts 221°
2026-05-06 14:21 36.26191 15.40453 39589 ft 460 kts 221°
2026-05-06 14:22 36.23593 15.38132 39711 ft 460 kts 220°
2026-05-06 14:22 36.21875 15.36599 39775 ft 460 kts 221°
2026-05-06 14:22 36.16686 15.31968 39965 ft 460 kts 221°
2026-05-06 14:23 36.11480 15.27331 40003 ft 461 kts 220°
2026-05-06 14:23 36.06280 15.22710 40004 ft 459 kts 220°
2026-05-06 14:24 36.01091 15.18106 39991 ft 459 kts 220°
2026-05-06 14:24 35.95899 15.13507 39996 ft 460 kts 220°
2026-05-06 14:25 35.90700 15.08908 39996 ft 460 kts 220°
2026-05-06 14:25 35.85500 15.04318 39990 ft 460 kts 220°
2026-05-06 14:26 35.80296 14.99730 39990 ft 460 kts 220°
2026-05-06 14:26 35.75093 14.95153 39987 ft 459 kts 221°
2026-05-06 14:27 35.69938 14.90624 39986 ft 458 kts 221°
2026-05-06 14:27 35.64767 14.86090 39984 ft 455 kts 221°
2026-05-06 14:28 35.59614 14.81577 39979 ft 455 kts 221°
2026-05-06 14:28 35.54464 14.77074 39978 ft 453 kts 221°
2026-05-06 14:29 35.49342 14.72605 39974 ft 451 kts 222°
2026-05-06 14:29 35.44231 14.68149 39968 ft 450 kts 222°
2026-05-06 14:30 35.39123 14.63703 39967 ft 450 kts 222°
2026-05-06 14:30 35.34011 14.59262 39953 ft 450 kts 223°
2026-05-06 14:31 35.28921 14.54849 39960 ft 447 kts 223°
2026-05-06 14:31 35.23844 14.50453 39958 ft 447 kts 223°
2026-05-06 14:32 35.18772 14.46066 39953 ft 447 kts 223°
2026-05-06 14:32 35.13694 14.41680 39948 ft 447 kts 223°
2026-05-06 14:33 35.08616 14.37303 39943 ft 447 kts 223°
2026-05-06 14:33 35.03539 14.32934 39938 ft 447 kts 222°
2026-05-06 14:34 34.98458 14.28567 39933 ft 447 kts 222°
2026-05-06 14:34 34.93377 14.24208 39931 ft 447 kts 222°
2026-05-06 14:35 34.88297 14.19858 39910 ft 445 kts 223°
2026-05-06 14:35 34.83245 14.15541 39916 ft 443 kts 223°
2026-05-06 14:36 34.78212 14.11241 39909 ft 442 kts 223°
2026-05-06 14:36 34.73175 14.06942 39903 ft 442 kts 223°
2026-05-06 14:37 34.68137 14.02652 39883 ft 442 kts 223°
2026-05-06 14:37 34.63095 13.98365 39890 ft 443 kts 223°
2026-05-06 14:38 34.58047 13.94079 39902 ft 443 kts 223°
2026-05-06 14:38 34.52998 13.89801 39870 ft 443 kts 223°
2026-05-06 14:39 34.47979 13.85553 39862 ft 443 kts 223°
2026-05-06 14:39 34.42933 13.81290 39871 ft 442 kts 223°
2026-05-06 14:40 34.37892 13.77038 39868 ft 441 kts 223°
2026-05-06 14:40 34.32857 13.72794 39859 ft 441 kts 224°
2026-05-06 14:41 34.30304 13.70718 39650 ft 442 kts 221°
2026-05-06 14:41 34.27709 13.68731 39439 ft 441 kts 221°
2026-05-06 14:41 34.25101 13.66784 39196 ft 441 kts 221°
2026-05-06 14:41 34.22486 13.64842 38947 ft 441 kts 221°
2026-05-06 14:42 34.17255 13.60919 38843 ft 446 kts 222°
2026-05-06 14:42 34.11985 13.56927 38842 ft 447 kts 222°
2026-05-06 14:43 34.06721 13.52937 38837 ft 447 kts 222°
2026-05-06 14:43 34.01459 13.48949 38823 ft 447 kts 222°
2026-05-06 14:44 33.96205 13.44973 38817 ft 446 kts 222°
2026-05-06 14:45 33.88313 13.39008 38816 ft 447 kts 222°
2026-05-06 14:45 33.83045 13.35037 38808 ft 447 kts 222°
2026-05-06 14:46 33.77771 13.31067 38802 ft 447 kts 222°
2026-05-06 14:46 33.72492 13.27098 38801 ft 448 kts 222°
2026-05-06 14:47 33.67178 13.23117 38797 ft 453 kts 221°
2026-05-06 14:47 33.61651 13.19395 38783 ft 457 kts 218°
2026-05-06 14:48 33.56067 13.15819 38779 ft 458 kts 218°
2026-05-06 14:48 33.50472 13.12193 38756 ft 457 kts 219°
2026-05-06 14:49 33.44886 13.08523 38775 ft 459 kts 219°
2026-05-06 14:49 33.39283 13.04832 38756 ft 460 kts 219°
2026-05-06 14:50 33.33678 13.01147 38754 ft 460 kts 219°
2026-05-06 14:50 33.28070 12.97468 38743 ft 460 kts 219°
2026-05-06 14:51 33.22450 12.93784 38749 ft 464 kts 218°
2026-05-06 14:51 33.16761 12.90055 38727 ft 468 kts 218°
2026-05-06 14:52 33.11047 12.86329 38721 ft 468 kts 218°
2026-05-06 14:52 33.05337 12.82610 38721 ft 468 kts 218°
2026-05-06 14:53 32.99625 12.78891 38709 ft 468 kts 218°
2026-05-06 14:53 32.93893 12.75162 38710 ft 469 kts 218°
2026-05-06 14:54 32.88196 12.71470 38708 ft 465 kts 218°
2026-05-06 14:54 32.82521 12.67791 38705 ft 464 kts 218°
2026-05-06 14:55 32.76847 12.64114 38697 ft 465 kts 218°
2026-05-06 14:55 32.74016 12.62252 38813 ft 465 kts 218°
2026-05-06 14:55 32.71205 12.60370 38990 ft 463 kts 219°
2026-05-06 14:55 32.68447 12.58511 39179 ft 462 kts 219°
2026-05-06 14:56 32.65660 12.56630 39320 ft 461 kts 219°
2026-05-06 14:56 32.62870 12.54752 39477 ft 461 kts 218°
2026-05-06 14:56 32.60040 12.52854 39594 ft 461 kts 218°
2026-05-06 14:57 32.54446 12.49115 39697 ft 462 kts 218°